TIANQI-14 (48864 NORAD) Tracking and Keplerian Element Data

This shows tracking and keplerian element data for the satellite.

Feedback or suggestion? Click here.




ElementValue
Catalog48864
NameTIANQI-14
Epoch Orbit1746
Epoch Day288.20899668
Epoch Year2021
RAAN347.6704
Inclination35.0084
Eccentricity0.0007341
Argument of Perigee229.1662
Mean Anonmoly130.8415
Mean Motion14.91466876
Decay Rate5.97E-06
L11 48864U 21055E 21288.20899668 .00000597 00000-0 61236-4 0 9995
L22 48864 35.0084 347.6704 0007341 229.1662 130.8415 14.91466876 17468

Live tracking and technical data element details for TIANQI-14 (NORAD 48864). TIANQI-14 can be tracked NOW for your location showing map with azimuth and elevation plus other details from your city location.

Track the satellite on the map from your city or location and see movement details for azimuth, elevation, latitude, longitude, range, height, and movement on the map or in text.







IsCatalogInMostPopularTable: catalog: 48864, numindb: 30
Update: records affected: 1



GetName: 48864 TIANQI-14

Hit Count: updated at: Tue, 19 Oct 2021 09:27:57 GMT